Time,TemperatureF,DewpointF,PressureIn,WindDirection,WindDirectionDegrees,WindSpeedMPH,WindSpeedGustMPH,Humidity,HourlyPrecipIn,Conditions,Clouds,dailyrainin,SoftwareType,DateUTC
2013-01-22 00:02:00,-10.0,-15.0,30.44,NW,311,0.0,-999.0,78,-99.99,,,-99.99,,2013-01-22 06:02:00,
2013-01-22 00:12:00,-10.0,-15.0,30.44,NW,311,0.0,-999.0,78,-99.99,,,-99.99,,2013-01-22 06:12:00,
2013-01-22 00:22:00,-10.0,-15.0,30.44,NW,311,0.0,-999.0,78,-99.99,,,-99.99,,2013-01-22 06:22:00,
2013-01-22 00:32:00,-10.0,-15.0,30.45,NW,311,0.0,-999.0,78,-99.99,,,-99.99,,2013-01-22 06:32:00,
2013-01-22 00:42:00,-10.0,-15.0,30.45,NW,311,0.0,-999.0,78,-99.99,,,-99.99,,2013-01-22 06:42:00,
2013-01-22 00:53:00,-10.0,-15.0,30.45,NW,311,0.0,-999.0,78,-99.99,,,-99.99,,2013-01-22 06:53:00,
2013-01-22 01:02:00,-10.0,-15.0,30.44,NW,311,0.0,-999.0,78,-99.99,,,-99.99,,2013-01-22 07:02:00,
2013-01-22 01:12:00,-10.0,-15.0,30.44,NW,311,0.0,-999.0,78,-99.99,,,-99.99,,2013-01-22 07:12:00,
2013-01-22 01:22:00,-10.0,-15.0,30.45,NW,311,0.0,-999.0,78,-99.99,,,-99.99,,2013-01-22 07:22:00,
2013-01-22 01:32:00,-10.0,-15.0,30.45,NW,311,0.0,-999.0,78,-99.99,,,-99.99,,2013-01-22 07:32:00,
2013-01-22 01:42:00,-10.0,-15.0,30.45,NW,311,0.0,-999.0,78,-99.99,,,-99.99,,2013-01-22 07:42:00,
2013-01-22 01:52:00,-11.0,-16.0,30.45,NW,311,0.0,-999.0,78,-99.99,,,-99.99,,2013-01-22 07:52:00,
2013-01-22 02:02:00,-11.0,-16.0,30.44,NW,311,0.0,-999.0,78,-99.99,,,-99.99,,2013-01-22 08:02:00,
2013-01-22 02:12:00,-11.0,-16.0,30.44,NW,311,0.0,-999.0,78,-99.99,,,-99.99,,2013-01-22 08:12:00,
2013-01-22 02:22:00,-11.0,-16.0,30.45,NW,311,0.0,-999.0,78,-99.99,,,-99.99,,2013-01-22 08:22:00,
2013-01-22 02:32:00,-11.0,-16.0,30.45,NW,311,0.0,-999.0,78,-99.99,,,-99.99,,2013-01-22 08:32:00,
2013-01-22 02:42:00,-11.0,-16.0,30.45,NW,311,0.0,-999.0,78,-99.99,,,-99.99,,2013-01-22 08:42:00,
2013-01-22 02:52:00,-11.0,-16.0,30.46,NW,311,0.0,-999.0,78,-99.99,,,-99.99,,2013-01-22 08:52:00,
2013-01-22 03:02:00,-11.0,-16.0,30.46,NW,311,0.0,-999.0,78,-99.99,,,-99.99,,2013-01-22 09:02:00,
2013-01-22 03:12:00,-11.0,-16.0,30.46,NW,311,0.0,-999.0,78,-99.99,,,-99.99,,2013-01-22 09:12:00,
2013-01-22 03:22:00,-11.0,-16.0,30.45,NW,311,0.0,-999.0,78,-99.99,,,-99.99,,2013-01-22 09:22:00,
2013-01-22 03:32:00,-11.0,-16.0,30.46,NW,311,0.0,-999.0,78,-99.99,,,-99.99,,2013-01-22 09:32:00,
2013-01-22 03:42:00,-11.0,-16.0,30.46,NW,311,0.0,-999.0,78,-99.99,,,-99.99,,2013-01-22 09:42:00,
2013-01-22 03:52:00,-11.0,-16.0,30.46,NW,311,0.0,-999.0,78,-99.99,,,-99.99,,2013-01-22 09:52:00,
2013-01-22 04:02:00,-11.0,-16.0,30.46,NW,311,0.0,-999.0,77,-99.99,,,-99.99,,2013-01-22 10:02:00,
2013-01-22 04:12:00,-11.0,-16.0,30.46,NW,311,0.0,-999.0,77,-99.99,,,-99.99,,2013-01-22 10:12:00,
2013-01-22 04:22:00,-11.0,-16.0,30.46,NW,311,0.0,-999.0,77,-99.99,,,-99.99,,2013-01-22 10:22:00,
2013-01-22 04:32:00,-11.0,-16.0,30.46,NW,311,0.0,-999.0,77,-99.99,,,-99.99,,2013-01-22 10:32:00,
2013-01-22 04:42:00,-11.0,-16.0,30.46,NW,311,0.0,-999.0,77,-99.99,,,-99.99,,2013-01-22 10:42:00,
2013-01-22 04:52:00,-11.0,-16.0,30.45,NW,311,0.0,-999.0,78,-99.99,,,-99.99,,2013-01-22 10:52:00,
2013-01-22 05:02:00,-12.0,-17.0,30.46,NW,311,0.0,-999.0,78,-99.99,,,-99.99,,2013-01-22 11:02:00,
2013-01-22 05:12:00,-12.0,-17.0,30.46,NW,311,0.0,-999.0,78,-99.99,,,-99.99,,2013-01-22 11:12:00,
2013-01-22 05:22:00,-11.0,-16.0,30.46,NW,311,0.0,-999.0,77,-99.99,,,-99.99,,2013-01-22 11:22:00,
2013-01-22 05:33:00,-11.0,-16.0,30.46,NW,311,0.0,-999.0,77,-99.99,,,-99.99,,2013-01-22 11:33:00,
2013-01-22 05:42:00,-11.0,-16.0,30.46,NW,311,0.0,-999.0,77,-99.99,,,-99.99,,2013-01-22 11:42:00,
2013-01-22 05:53:00,-12.0,-17.0,30.47,NW,311,0.0,-999.0,77,-99.99,,,-99.99,,2013-01-22 11:53:00,
2013-01-22 06:03:00,-12.0,-17.0,30.47,NW,311,0.0,-999.0,77,-99.99,,,-99.99,,2013-01-22 12:03:00,
2013-01-22 06:12:00,-12.0,-17.0,30.47,NW,311,0.0,-999.0,77,-99.99,,,-99.99,,2013-01-22 12:12:00,
2013-01-22 06:23:00,-12.0,-17.0,30.47,NW,311,0.0,-999.0,76,-99.99,,,-99.99,,2013-01-22 12:23:00,
2013-01-22 06:33:00,-12.0,-17.0,30.47,NW,311,0.0,-999.0,76,-99.99,,,-99.99,,2013-01-22 12:33:00,
2013-01-22 06:43:00,-12.0,-17.0,30.47,NW,311,0.0,-999.0,76,-99.99,,,-99.99,,2013-01-22 12:43:00,
2013-01-22 06:53:00,-12.0,-17.0,30.47,NW,311,0.0,-999.0,76,-99.99,,,-99.99,,2013-01-22 12:53:00,
2013-01-22 07:03:00,-12.0,-17.0,30.45,NW,311,0.0,-999.0,76,-99.99,,,-99.99,,2013-01-22 13:03:00,
2013-01-22 07:13:00,-12.0,-17.0,30.45,NW,311,0.0,-999.0,76,-99.99,,,-99.99,,2013-01-22 13:13:00,
2013-01-22 07:23:00,-12.0,-17.0,30.45,NW,311,0.0,-999.0,76,-99.99,,,-99.99,,2013-01-22 13:23:00,
2013-01-22 07:33:00,-12.0,-17.0,30.45,NW,311,0.0,-999.0,76,-99.99,,,-99.99,,2013-01-22 13:33:00,
2013-01-22 07:43:00,-12.0,-17.0,30.45,NW,311,0.0,-999.0,76,-99.99,,,-99.99,,2013-01-22 13:43:00,
2013-01-22 07:53:00,-13.0,-18.0,30.45,NW,311,0.0,-999.0,77,-99.99,,,-99.99,,2013-01-22 13:53:00,
2013-01-22 08:03:00,-13.0,-18.0,30.45,NW,311,0.0,-999.0,77,-99.99,,,-99.99,,2013-01-22 14:03:00,
2013-01-22 08:13:00,-13.0,-18.0,30.45,NW,311,0.0,-999.0,77,-99.99,,,-99.99,,2013-01-22 14:13:00,
2013-01-22 08:23:00,-13.0,-18.0,30.45,NW,311,0.0,-999.0,77,-99.99,,,-99.99,,2013-01-22 14:23:00,
2013-01-22 08:33:00,-13.0,-18.0,30.45,NW,311,0.0,-999.0,77,-99.99,,,-99.99,,2013-01-22 14:33:00,
2013-01-22 08:43:00,-13.0,-18.0,30.45,NW,311,0.0,-999.0,77,-99.99,,,-99.99,,2013-01-22 14:43:00,
2013-01-22 08:53:00,-12.0,-17.0,30.46,NW,311,0.0,-999.0,77,-99.99,,,-99.99,,2013-01-22 14:53:00,
2013-01-22 09:03:00,-10.0,-15.0,30.46,NW,311,0.0,-999.0,76,-99.99,,,-99.99,,2013-01-22 15:03:00,
2013-01-22 09:13:00,-10.0,-15.0,30.46,NW,311,0.0,-999.0,76,-99.99,,,-99.99,,2013-01-22 15:13:00,
2013-01-22 09:23:00,-7.0,-13.0,30.47,NW,311,0.0,-999.0,75,-99.99,,,-99.99,,2013-01-22 15:23:00,
2013-01-22 09:34:00,-6.0,-13.0,30.47,NW,311,0.0,-999.0,72,-99.99,,,-99.99,,2013-01-22 15:34:00,
2013-01-22 09:43:00,-6.0,-13.0,30.47,NW,311,0.0,-999.0,72,-99.99,,,-99.99,,2013-01-22 15:43:00,
2013-01-22 09:52:00,-6.0,-13.0,30.48,NW,311,0.0,-999.0,70,-99.99,,,-99.99,,2013-01-22 15:52:00,
2013-01-22 10:03:00,-8.0,-15.0,30.48,WNW,295,0.0,-999.0,70,-99.99,,,-99.99,,2013-01-22 16:03:00,
2013-01-22 10:13:00,-8.0,-15.0,30.48,WNW,295,0.0,-999.0,70,-99.99,,,-99.99,,2013-01-22 16:13:00,
2013-01-22 10:23:00,-7.0,-13.0,30.48,WNW,288,0.0,-999.0,74,-99.99,,,-99.99,,2013-01-22 16:23:00,
2013-01-22 10:33:00,-7.0,-13.0,30.48,West,269,0.0,-999.0,73,-99.99,,,-99.99,,2013-01-22 16:33:00,
2013-01-22 10:43:00,-7.0,-13.0,30.48,West,269,0.0,-999.0,73,-99.99,,,-99.99,,2013-01-22 16:43:00,
2013-01-22 10:53:00,-7.0,-13.0,30.47,WSW,249,0.0,-999.0,73,-99.99,,,-99.99,,2013-01-22 16:53:00,
2013-01-22 11:03:00,-7.0,-13.0,30.48,SSW,203,0.0,-999.0,74,-99.99,,,-99.99,,2013-01-22 17:03:00,
2013-01-22 11:13:00,-7.0,-13.0,30.48,SSW,203,0.0,-999.0,74,-99.99,,,-99.99,,2013-01-22 17:13:00,
2013-01-22 11:23:00,-6.0,-12.0,30.49,SSW,202,0.0,-999.0,76,-99.99,,,-99.99,,2013-01-22 17:23:00,
2013-01-22 11:34:00,-5.0,-11.0,30.48,SSW,199,0.0,-999.0,75,-99.99,,,-99.99,,2013-01-22 17:34:00,
2013-01-22 11:43:00,-5.0,-11.0,30.48,SSW,199,0.0,-999.0,75,-99.99,,,-99.99,,2013-01-22 17:43:00,
2013-01-22 11:53:00,-4.0,-10.0,30.47,SSW,194,0.0,-999.0,74,-99.99,,,-99.99,,2013-01-22 17:53:00,
2013-01-22 12:03:00,-3.0,-9.0,30.47,South,189,0.0,-999.0,74,-99.99,,,-99.99,,2013-01-22 18:03:00,
2013-01-22 12:13:00,-3.0,-9.0,30.47,South,189,0.0,-999.0,74,-99.99,,,-99.99,,2013-01-22 18:13:00,
2013-01-22 12:23:00,-3.0,-10.0,30.46,South,188,0.0,-999.0,72,-99.99,,,-99.99,,2013-01-22 18:23:00,
2013-01-22 12:33:00,-2.0,-9.0,30.46,South,188,0.0,-999.0,72,-99.99,,,-99.99,,2013-01-22 18:33:00,
2013-01-22 12:43:00,-2.0,-9.0,30.46,South,188,0.0,-999.0,72,-99.99,,,-99.99,,2013-01-22 18:43:00,
2013-01-22 12:53:00,-1.0,-8.0,30.45,South,187,0.0,-999.0,72,-99.99,,,-99.99,,2013-01-22 18:53:00,
2013-01-22 13:03:00,-1.0,-8.0,30.44,South,187,0.0,-999.0,70,-99.99,,,-99.99,,2013-01-22 19:03:00,
2013-01-22 13:13:00,-1.0,-8.0,30.44,South,187,0.0,-999.0,70,-99.99,,,-99.99,,2013-01-22 19:13:00,
2013-01-22 13:23:00,-1.0,-8.0,30.44,South,187,0.0,-999.0,70,-99.99,,,-99.99,,2013-01-22 19:23:00,
2013-01-22 13:33:00,0.0,-7.0,30.42,South,187,0.0,-999.0,70,-99.99,,,-99.99,,2013-01-22 19:33:00,
2013-01-22 13:43:00,0.0,-7.0,30.42,South,187,0.0,-999.0,70,-99.99,,,-99.99,,2013-01-22 19:43:00,
2013-01-22 13:54:00,0.0,-7.0,30.42,South,187,0.0,-999.0,71,-99.99,,,-99.99,,2013-01-22 19:54:00,
2013-01-22 14:03:00,0.0,-7.0,30.43,South,188,0.0,-999.0,71,-99.99,,,-99.99,,2013-01-22 20:03:00,
2013-01-22 14:13:00,0.0,-7.0,30.43,South,188,0.0,-999.0,71,-99.99,,,-99.99,,2013-01-22 20:13:00,
2013-01-22 14:23:00,0.0,-7.0,30.42,South,189,0.0,-999.0,71,-99.99,,,-99.99,,2013-01-22 20:23:00,
2013-01-22 14:33:00,0.0,-7.0,30.42,South,188,0.0,-999.0,71,-99.99,,,-99.99,,2013-01-22 20:33:00,
2013-01-22 14:43:00,0.0,-7.0,30.42,South,188,0.0,-999.0,71,-99.99,,,-99.99,,2013-01-22 20:43:00,
2013-01-22 14:53:00,1.0,-7.0,30.41,South,188,0.0,-999.0,69,-99.99,,,-99.99,,2013-01-22 20:53:00,
2013-01-22 15:03:00,0.0,-7.0,30.41,South,188,0.0,-999.0,70,-99.99,,,-99.99,,2013-01-22 21:03:00,
2013-01-22 15:13:00,0.0,-7.0,30.41,South,188,0.0,-999.0,70,-99.99,,,-99.99,,2013-01-22 21:13:00,
2013-01-22 15:23:00,2.0,-6.0,30.41,South,182,0.0,-999.0,70,-99.99,,,-99.99,,2013-01-22 21:23:00,
2013-01-22 15:33:00,2.0,-6.0,30.41,South,182,0.0,-999.0,69,-99.99,,,-99.99,,2013-01-22 21:33:00,
2013-01-22 15:43:00,2.0,-6.0,30.41,South,182,0.0,-999.0,69,-99.99,,,-99.99,,2013-01-22 21:43:00,
2013-01-22 15:53:00,4.0,-4.0,30.40,South,182,0.0,-999.0,69,-99.99,,,-99.99,,2013-01-22 21:53:00,
2013-01-22 16:03:00,5.0,-4.0,30.39,South,182,0.0,-999.0,66,-99.99,,,-99.99,,2013-01-22 22:03:00,
2013-01-22 16:12:00,5.0,-4.0,30.39,South,182,0.0,-999.0,66,-99.99,,,-99.99,,2013-01-22 22:12:00,
2013-01-22 16:22:00,4.0,-5.0,30.39,South,182,0.0,-999.0,64,-99.99,,,-99.99,,2013-01-22 22:22:00,
2013-01-22 16:32:00,4.0,-5.0,30.39,South,182,0.0,-999.0,64,-99.99,,,-99.99,,2013-01-22 22:32:00,
2013-01-22 16:43:00,4.0,-4.0,30.39,South,180,0.0,-999.0,67,-99.99,,,-99.99,,2013-01-22 22:43:00,
2013-01-22 16:53:00,3.0,-5.0,30.38,South,175,0.0,-999.0,69,-99.99,,,-99.99,,2013-01-22 22:53:00,
2013-01-22 17:03:00,3.0,-5.0,30.37,South,172,0.0,-999.0,70,-99.99,,,-99.99,,2013-01-22 23:03:00,
2013-01-22 17:12:00,3.0,-5.0,30.37,South,172,0.0,-999.0,70,-99.99,,,-99.99,,2013-01-22 23:12:00,
2013-01-22 17:23:00,3.0,-4.0,30.38,South,169,0.0,-999.0,71,-99.99,,,-99.99,,2013-01-22 23:23:00,
2013-01-22 17:33:00,3.0,-4.0,30.37,South,169,0.0,-999.0,71,-99.99,,,-99.99,,2013-01-22 23:33:00,
2013-01-22 17:43:00,3.0,-4.0,30.37,South,169,0.0,-999.0,71,-99.99,,,-99.99,,2013-01-22 23:43:00,
2013-01-22 17:53:00,2.0,-5.0,30.37,South,169,0.0,-999.0,72,-99.99,,,-99.99,,2013-01-22 23:53:00,
2013-01-22 18:03:00,2.0,-5.0,30.37,South,169,0.0,-999.0,72,-99.99,,,-99.99,,2013-01-23 00:03:00,
2013-01-22 18:12:00,2.0,-5.0,30.37,South,169,0.0,-999.0,72,-99.99,,,-99.99,,2013-01-23 00:12:00,
2013-01-22 18:22:00,2.0,-5.0,30.37,South,169,0.0,-999.0,72,-99.99,,,-99.99,,2013-01-23 00:22:00,
2013-01-22 18:33:00,2.0,-5.0,30.37,SSE,168,0.0,-999.0,72,-99.99,,,-99.99,,2013-01-23 00:33:00,
2013-01-22 18:43:00,2.0,-5.0,30.37,SSE,168,0.0,-999.0,72,-99.99,,,-99.99,,2013-01-23 00:43:00,
2013-01-22 18:52:00,2.0,-4.0,30.37,SSE,167,0.0,-999.0,74,-99.99,,,-99.99,,2013-01-23 00:52:00,
2013-01-22 19:03:00,2.0,-4.0,30.37,SSE,167,0.0,-999.0,74,-99.99,,,-99.99,,2013-01-23 01:03:00,
2013-01-22 19:13:00,2.0,-4.0,30.37,SSE,167,0.0,-999.0,74,-99.99,,,-99.99,,2013-01-23 01:13:00,
2013-01-22 19:22:00,2.0,-4.0,30.36,SSE,165,0.0,-999.0,75,-99.99,,,-99.99,,2013-01-23 01:22:00,
2013-01-22 19:33:00,2.0,-4.0,30.35,SSE,152,1.0,-999.0,74,-99.99,,,-99.99,,2013-01-23 01:33:00,
2013-01-22 19:43:00,2.0,-4.0,30.35,SSE,152,1.0,-999.0,74,-99.99,,,-99.99,,2013-01-23 01:43:00,
2013-01-22 19:53:00,2.0,-4.0,30.34,SE,144,4.0,-999.0,75,-99.99,,,-99.99,,2013-01-23 01:53:00,
2013-01-22 20:03:00,2.0,-4.0,30.33,SE,140,4.0,-999.0,75,-99.99,,,-99.99,,2013-01-23 02:03:00,
2013-01-22 20:12:00,2.0,-4.0,30.33,SE,140,4.0,-999.0,75,-99.99,,,-99.99,,2013-01-23 02:12:00,
2013-01-22 20:23:00,2.0,-4.0,30.33,North,360,2.0,-999.0,75,-99.99,,,-99.99,,2013-01-23 02:23:00,
2013-01-22 20:33:00,2.0,-4.0,30.33,North,360,2.0,-999.0,76,-99.99,,,-99.99,,2013-01-23 02:33:00,
2013-01-22 20:42:00,2.0,-4.0,30.33,North,360,2.0,-999.0,76,-99.99,,,-99.99,,2013-01-23 02:42:00,
2013-01-22 20:53:00,2.0,-4.0,30.33,North,360,2.0,-999.0,76,-99.99,,,-99.99,,2013-01-23 02:53:00,
2013-01-22 21:03:00,2.0,-4.0,30.33,SE,135,1.0,-999.0,76,-99.99,,,-99.99,,2013-01-23 03:03:00,
2013-01-22 21:12:00,2.0,-4.0,30.33,SE,135,1.0,-999.0,76,-99.99,,,-99.99,,2013-01-23 03:12:00,
2013-01-22 21:23:00,2.0,-4.0,30.33,SE,135,1.0,-999.0,76,-99.99,,,-99.99,,2013-01-23 03:23:00,
2013-01-22 21:32:00,2.0,-4.0,30.33,SE,136,2.0,-999.0,76,-99.99,,,-99.99,,2013-01-23 03:32:00,
2013-01-22 21:42:00,2.0,-4.0,30.33,SE,136,2.0,-999.0,76,-99.99,,,-99.99,,2013-01-23 03:42:00,
2013-01-22 21:53:00,2.0,-4.0,30.32,North,360,0.0,-999.0,77,-99.99,,,-99.99,,2013-01-23 03:53:00,
2013-01-22 22:03:00,2.0,-4.0,30.32,SE,138,1.0,-999.0,76,-99.99,,,-99.99,,2013-01-23 04:03:00,
2013-01-22 22:12:00,2.0,-4.0,30.32,SE,138,1.0,-999.0,76,-99.99,,,-99.99,,2013-01-23 04:12:00,
2013-01-22 22:22:00,2.0,-4.0,30.31,SE,137,3.0,-999.0,76,-99.99,,,-99.99,,2013-01-23 04:22:00,
2013-01-22 22:32:00,2.0,-4.0,30.31,SE,137,3.0,-999.0,76,-99.99,,,-99.99,,2013-01-23 04:32:00,
2013-01-22 22:43:00,2.0,-4.0,30.31,SE,137,3.0,-999.0,76,-99.99,,,-99.99,,2013-01-23 04:43:00,
2013-01-22 22:52:00,3.0,-3.0,30.31,North,360,0.0,-999.0,77,-99.99,,,-99.99,,2013-01-23 04:52:00,
2013-01-22 23:03:00,3.0,-3.0,30.32,SE,136,0.0,-999.0,77,-99.99,,,-99.99,,2013-01-23 05:03:00,
2013-01-22 23:12:00,3.0,-3.0,30.32,SE,136,0.0,-999.0,77,-99.99,,,-99.99,,2013-01-23 05:12:00,
2013-01-22 23:22:00,3.0,-3.0,30.31,North,360,1.0,-999.0,77,-99.99,,,-99.99,,2013-01-23 05:22:00,
2013-01-22 23:33:00,3.0,-3.0,30.31,SE,137,0.0,-999.0,77,-99.99,,,-99.99,,2013-01-23 05:33:00,
2013-01-22 23:43:00,3.0,-3.0,30.31,SE,137,0.0,-999.0,77,-99.99,,,-99.99,,2013-01-23 05:43:00,
2013-01-22 23:52:00,3.0,-2.0,30.31,SE,137,0.0,-999.0,78,-99.99,,,-99.99,,2013-01-23 05:52:00,